Wind_Speed
18 17 18 18 17 16 16 15 15 15 14 13 12 10 9 7 7 6 5 4 4 4 3 3 3 3 3 3 4 5 5 5 5 6 6 7 7 8 9 10 10 11 11
17 16 16 17 17 17 16 16 15 15 14 13 12 11 10 9 8 7 6 5 5 4 4 4 4 4 4 4 5 5 6 6 6 7 7 8 9 10 10 11 11 12 12
15 15 15 15 16 16 15 15 15 15 14 13 13 12 11 10 9 8 8 7 7 6 5 5 5 5 5 5 6 6 6 7 8 9 9 10 10 11 11 11 12 12 13
14 13 13 14 15 15 15 15 15 15 14 13 13 12 11 10 9 8 8 8 8 7 7 6 6 6 6 6 6 7 7 8 9 10 10 11 11 12 11 11 12 12 13
12 12 12 12 13 13 14 14 14 14 14 13 12 12 11 11 11 10 10 9 9 8 8 7 7 7 7 7 8 8 9 9 10 11 12 12 12 12 12 12 13 13 14
10 11 11 11 11 12 12 13 13 13 13 13 12 11 12 12 11 11 11 10 10 9 8 8 8 8 8 8 9 10 10 11 12 12 12 13 13 13 13 13 13 14 15
9 10 10 10 10 11 11 12 12 12 13 13 13 12 12 12 12 11 11 11 11 10 9 9 9 9 9 10 10 10 11 12 12 13 13 13 13 13 14 14 14 14 15
8 8 9 10 10 10 11 11 11 12 13 13 13 12 12 12 12 12 12 11 11 11 10 10 10 10 11 11 11 11 12 12 13 13 13 13 13 14 14 14 14 14 15
7 8 8 9 9 10 10 11 11 11 12 13 13 13 12 12 11 11 11 12 12 12 12 11 11 11 11 12 12 11 11 11 12 12 13 13 13 14 14 14 15 15 15
7 8 8 8 8 9 10 10 11 12 12 13 13 12 12 11 11 12 11 12 12 13 13 13 12 12 12 13 12 11 11 12 12 12 13 14 14 14 14 15 15 15 14
8 8 7 7 8 9 10 11 12 13 12 13 13 12 12 12 12 12 12 12 12 13 13 13 13 13 13 13 13 12 12 11 11 12 12 12 13 14 14 15 16 15 15
9 9 8 8 9 9 9 11 12 13 13 13 13 13 13 13 13 12 12 12 12 13 13 13 13 13 13 13 13 13 12 12 12 12 12 13 13 14 15 16 16 16 16
11 11 10 9 10 10 10 10 12 13 14 14 14 13 13 13 13 13 13 12 12 13 13 14 14 14 14 14 14 14 14 13 13 13 14 14 15 15 15 16 16 16 16
13 13 12 11 10 11 11 12 12 14 15 15 15 14 14 14 14 14 14 14 14 14 14 14 14 14 14 15 15 15 15 14 14 14 14 15 15 15 15 16 16 16 16
14 14 13 13 12 12 13 14 14 15 16 16 16 15 15 15 15 14 14 14 14 15 15 15 15 15 15 16 15 15 15 14 14 15 15 16 16 17 16 16 16 16 16
16 16 15 14 14 14 15 16 16 17 17 17 17 17 16 16 16 15 15 15 15 15 16 15 15 15 16 16 16 16 16 15 15 16 16 16 17 17 17 17 17 17 17
19 18 18 17 16 16 17 17 18 18 18 18 19 19 18 18 17 17 16 16 16 16 16 16 16 15 16 16 17 17 17 16 16 17 17 17 17 17 18 18 18 18 18
22 21 20 19 19 18 18 18 19 20 20 19 20 20 20 19 18 18 18 18 18 17 17 17 17 16 17 17 18 18 17 17 17 17 17 17 18 18 18 19 18 18 19
24 23 23 22 21 21 20 20 21 21 21 20 20 21 21 19 19 19 19 19 19 19 18 18 18 18 18 19 19 19 18 19 18 19 18 19 19 19 19 19 19 20 20
25 25 24 23 23 22 22 22 22 22 22 22 21 21 21 20 20 20 20 20 19 19 20 19 19 19 20 20 20 20 20 20 20 20 20 20 20 20 20 20 20 20 21
26 26 25 25 24 24 24 24 24 23 23 23 22 21 20 20 20 20 21 21 20 20 21 20 20 20 21 21 21 21 21 21 21 20 20 21 21 21 21 20 21 21 21
28 27 27 26 27 26 26 25 25 25 24 24 23 22 22 21 21 21 22 22 22 21 21 21 22 22 22 22 23 22 22 21 21 21 22 22 22 22 22 21 22 22 22
30 29 29 29 29 29 28 27 27 27 26 26 25 24 24 23 23 23 24 24 23 23 22 22 22 23 23 23 23 23 22 22 22 22 22 23 23 23 23 22 23 23 23
30 31 31 30 30 30 30 29 28 28 28 28 27 26 26 26 25 25 25 25 25 24 24 23 23 24 24 25 25 23 23 23 23 23 23 23 24 24 24 24 24 24 24
31 31 31 31 31 31 30 29 29 29 29 29 29 28 28 28 27 27 26 26 25 25 25 25 25 25 25 25 25 23 23 24 24 24 24 24 25 24 24 25 25 25 25
32 32 32 31 31 30 30 30 30 29 30 30 30 30 29 29 28 28 27 27 27 26 26 26 26 26 26 26 25 25 25 25 25 25 25 25 25 25 25 25 25 25 25
Wind_Direction
45 49 52 53 55 57 57 57 59 58 56 55 52 51 52 49 44 38 33 28 18 2 353 338 329 314 310 306 299 296 290 296 300 297 297 294 289 287 282 280 282 285 287
41 45 48 48 49 52 53 55 55 55 54 52 50 49 49 49 45 37 29 21 10 2 353 338 327 318 315 309 302 299 294 294 295 297 298 296 291 289 288 287 286 284 284
36 39 43 43 44 46 47 47 48 47 47 47 47 48 46 45 42 35 26 17 4 355 346 335 330 320 316 313 306 296 298 299 299 297 296 295 295 292 292 290 290 287 284
30 33 38 39 39 41 42 42 42 41 42 43 43 41 39 37 33 28 21 13 3 354 348 338 329 320 314 309 306 298 297 297 299 299 300 299 298 296 293 289 289 290 289
28 31 32 33 33 35 36 38 37 36 36 36 37 36 33 31 28 23 20 15 9 0 350 344 333 324 318 312 308 302 298 295 296 298 300 301 300 297 294 292 288 289 291
27 27 28 26 25 28 30 31 31 31 30 29 29 29 27 25 23 20 18 15 11 5 355 346 340 331 325 317 311 309 304 299 296 299 301 301 301 300 297 294 292 291 291
18 18 21 21 21 22 24 24 24 24 23 22 23 24 22 19 17 15 13 11 9 6 360 351 344 333 328 325 318 313 307 302 300 299 300 300 300 301 300 297 297 296 293
8 4 11 13 16 17 17 19 18 18 17 16 15 14 14 13 11 10 9 6 2 359 356 351 345 337 332 327 322 318 311 307 303 302 301 299 298 298 300 298 299 299 297
351 350 357 0 5 9 10 12 12 10 9 9 7 4 4 4 4 3 2 2 359 356 353 349 344 341 338 335 330 325 320 313 306 304 302 301 300 299 300 299 300 303 303
335 338 342 347 354 358 359 359 3 3 2 2 2 1 359 357 356 356 355 355 355 354 353 350 346 342 340 339 337 331 326 320 313 307 304 304 302 302 302 303 302 302 300
318 327 334 336 336 341 347 352 354 354 354 353 354 354 352 350 347 347 346 347 348 347 347 345 343 342 341 340 338 334 330 327 322 317 315 314 312 309 308 308 305 302 299
310 317 320 320 323 329 339 345 349 349 347 346 346 348 346 344 341 340 338 340 341 342 341 340 339 337 336 337 337 334 331 327 324 321 320 317 315 312 313 311 308 304 300
300 303 310 314 317 323 329 335 338 340 340 338 338 339 342 342 338 335 335 334 335 334 334 335 336 335 334 333 333 333 329 325 325 324 321 318 316 315 315 315 313 310 305
294 294 301 307 309 313 316 321 326 329 331 332 333 333 333 334 334 333 330 329 329 329 329 329 331 332 332 331 329 329 329 324 323 322 322 321 318 318 317 316 315 312 310
286 287 293 298 302 304 306 310 316 319 322 324 326 327 328 328 327 327 326 324 324 324 324 324 326 328 328 329 329 327 326 323 320 319 319 320 319 317 316 316 316 315 313
278 280 286 291 294 298 299 303 307 311 315 318 319 319 319 320 320 321 319 318 318 319 320 321 323 323 323 325 326 325 324 321 319 317 317 319 319 318 315 314 315 314 313
273 277 281 285 289 292 294 297 300 304 308 311 312 312 311 312 312 314 313 313 313 314 316 317 320 322 323 323 323 323 322 320 318 317 317 318 318 317 315 313 312 313 313
272 274 278 282 285 289 292 295 299 302 305 307 307 306 306 305 305 306 308 308 308 310 312 313 315 316 318 320 320 319 317 316 315 316 316 316 317 316 314 313 313 313 312
270 271 275 279 282 284 287 291 296 300 302 304 304 303 302 300 301 302 303 303 304 306 307 308 310 312 313 314 315 316 315 312 313 314 314 314 314 314 312 312 312 312 313
268 270 273 275 279 282 286 290 294 297 299 301 300 299 299 299 301 301 304 304 302 303 305 304 305 307 309 312 313 314 313 310 310 310 310 311 311 311 311 310 311 311 312
270 273 274 275 277 279 282 285 289 292 295 297 297 296 295 295 298 300 300 302 301 300 300 301 302 303 304 307 310 313 312 308 307 308 309 310 310 310 311 310 311 310 311
267 269 272 275 277 278 279 281 285 288 291 294 295 294 293 292 294 295 296 297 298 298 298 299 300 301 301 302 305 308 310 308 307 307 308 309 310 310 310 309 309 308 308
265 267 269 272 275 276 277 277 280 283 286 289 291 292 292 291 291 292 293 293 294 294 296 297 298 298 298 298 300 303 305 306 307 307 306 306 308 308 308 308 307 307 307
267 268 269 271 273 274 275 277 279 281 283 286 288 289 291 290 288 289 291 292 291 292 293 293 295 295 295 297 299 301 302 303 305 307 306 304 305 306 306 306 306 306 306
265 268 269 270 272 273 273 276 278 279 282 284 284 285 288 289 287 287 289 289 289 290 291 291 291 293 295 297 298 299 300 300 302 304 304 305 306 306 306 306 305 304 304
265 266 267 268 269 271 273 276 277 278 281 283 284 285 286 287 287 286 287 287 287 287 288 289 289 290 293 295 296 297 297 298 300 301 302 304 306 307 307 306 305 305 304
Height
5930 5928 5926 5924 5922 5921 5919 5918 5916 5915 5914 5913 5911 5910 5909 5908 5908 5907 5906 5905 5904 5903 5901 5901 5900 5899 5898 5897 5896 5896 5894 5894 5893 5893 5892 5891 5891 5890 5889 5888 5887 5886 5884
5932 5931 5929 5927 5925 5923 5922 5920 5919 5917 5916 5914 5913 5911 5910 5909 5908 5907 5905 5904 5904 5903 5901 5900 5899 5898 5897 5896 5895 5894 5893 5892 5892 5891 5890 5889 5889 5887 5887 5885 5884 5883 5882
5934 5932 5931 5929 5927 5926 5924 5922 5921 5919 5917 5916 5914 5913 5911 5910 5909 5907 5906 5905 5903 5902 5900 5899 5898 5897 5896 5895 5894 5893 5892 5891 5890 5889 5889 5887 5886 5885 5884 5883 5881 5880 5879
5936 5934 5932 5931 5929 5927 5926 5924 5922 5921 5919 5917 5916 5914 5913 5911 5909 5908 5906 5904 5903 5901 5900 5898 5897 5896 5894 5893 5892 5891 5890 5889 5888 5887 5886 5885 5884 5882 5881 5880 5879 5877 5876
5937 5936 5934 5932 5931 5929 5927 5926 5924 5922 5920 5919 5917 5915 5913 5912 5910 5908 5906 5904 5902 5900 5899 5897 5895 5894 5893 5891 5890 5889 5888 5887 5886 5884 5883 5882 5880 5879 5878 5877 5876 5874 5872
5938 5936 5935 5933 5932 5930 5928 5927 5925 5923 5921 5920 5918 5916 5914 5912 5910 5908 5906 5904 5902 5899 5898 5896 5894 5893 5891 5890 5888 5887 5886 5884 5883 5882 5880 5879 5877 5876 5874 5873 5872 5870 5868
5938 5937 5936 5934 5933 5931 5929 5928 5926 5924 5922 5920 5918 5916 5914 5912 5910 5908 5906 5903 5901 5899 5897 5895 5893 5891 5890 5888 5886 5884 5883 5881 5880 5879 5877 5876 5874 5873 5871 5870 5868 5866 5864
5938 5937 5936 5935 5933 5931 5930 5928 5926 5924 5922 5920 5918 5916 5914 5911 5909 5907 5905 5903 5901 5898 5896 5894 5892 5890 5888 5886 5884 5882 5880 5879 5877 5875 5874 5873 5871 5870 5868 5866 5865 5863 5861
5937 5936 5936 5935 5933 5931 5930 5928 5926 5924 5922 5920 5918 5915 5913 5911 5909 5907 5905 5902 5900 5898 5895 5893 5891 5889 5887 5885 5882 5880 5878 5876 5874 5873 5871 5869 5868 5866 5864 5863 5861 5860 5857
5936 5936 5935 5934 5932 5931 5929 5928 5926 5924 5922 5919 5917 5915 5912 5910 5908 5906 5904 5902 5899 5897 5894 5892 5890 5888 5886 5883 5881 5878 5876 5874 5872 5870 5868 5866 5864 5862 5861 5859 5857 5855 5853
5935 5934 5934 5933 5931 5930 5929 5927 5925 5923 5921 5919 5917 5914 5911 5909 5907 5905 5903 5900 5898 5895 5893 5891 5889 5886 5884 5882 5879 5876 5874 5872 5870 5868 5866 5864 5862 5860 5858 5855 5853 5851 5849
5932 5932 5932 5931 5930 5929 5927 5926 5924 5922 5920 5918 5915 5913 5910 5908 5905 5903 5901 5899 5897 5894 5892 5889 5887 5885 5882 5880 5877 5875 5872 5870 5867 5865 5863 5861 5859 5857 5854 5852 5849 5847 5845
5930 5930 5930 5929 5928 5927 5925 5924 5922 5920 5918 5916 5914 5911 5909 5906 5904 5902 5900 5897 5895 5892 5890 5887 5885 5883 5880 5878 5875 5872 5870 5867 5865 5863 5861 5859 5856 5854 5851 5848 5846 5843 5841
5927 5927 5927 5926 5925 5924 5923 5922 5920 5918 5916 5914 5912 5909 5907 5905 5902 5900 5897 5895 5893 5890 5888 5885 5883 5880 5878 5875 5873 5870 5867 5865 5863 5861 5858 5856 5853 5850 5848 5845 5842 5840 5837
5923 5923 5923 5923 5922 5921 5920 5919 5917 5915 5913 5912 5909 5907 5905 5903 5900 5898 5895 5893 5890 5888 5885 5883 5880 5878 5875 5872 5870 5867 5865 5862 5860 5858 5855 5853 5850 5847 5844 5842 5839 5837 5834
5919 5919 5919 5919 5919 5918 5917 5916 5914 5912 5910 5908 5906 5904 5902 5900 5897 5895 5892 5890 5887 5885 5882 5880 5877 5875 5872 5869 5867 5864 5862 5859 5857 5855 5852 5850 5847 5844 5841 5838 5836 5833 5831
5915 5915 5915 5915 5914 5914 5913 5912 5910 5908 5906 5904 5902 5900 5898 5896 5894 5891 5889 5886 5884 5881 5879 5877 5874 5872 5869 5866 5864 5861 5859 5856 5854 5851 5849 5846 5843 5840 5837 5835 5832 5829 5826
5910 5910 5910 5910 5910 5909 5908 5907 5905 5903 5902 5900 5898 5896 5894 5892 5889 5887 5885 5883 5880 5877 5875 5873 5871 5868 5866 5863 5860 5858 5855 5852 5850 5847 5845 5842 5839 5836 5833 5831 5828 5825 5822
5904 5904 5904 5905 5904 5904 5902 5901 5900 5898 5897 5895 5893 5891 5889 5887 5885 5882 5880 5878 5875 5873 5871 5869 5867 5864 5862 5859 5857 5854 5851 5848 5846 5843 5841 5838 5835 5832 5829 5827 5824 5821 5818
5898 5898 5898 5899 5898 5898 5897 5896 5894 5893 5891 5890 5888 5886 5884 5882 5880 5877 5875 5873 5871 5869 5867 5865 5862 5860 5857 5855 5853 5850 5847 5844 5841 5839 5836 5834 5831 5828 5825 5822 5819 5816 5813
5891 5891 5892 5892 5892 5891 5891 5890 5888 5887 5885 5884 5882 5880 5878 5876 5874 5872 5870 5868 5866 5864 5862 5860 5858 5855 5853 5851 5848 5845 5842 5839 5836 5834 5831 5829 5826 5823 5820 5817 5814 5811 5808
5885 5884 5884 5885 5885 5884 5884 5883 5882 5881 5879 5877 5876 5874 5872 5870 5868 5867 5865 5862 5860 5858 5856 5854 5852 5850 5848 5845 5842 5840 5837 5834 5831 5829 5826 5823 5821 5818 5815 5812 5809 5806 5802
5877 5877 5877 5877 5877 5877 5876 5876 5875 5874 5872 5871 5869 5867 5866 5864 5862 5860 5858 5856 5854 5852 5850 5848 5846 5844 5842 5839 5836 5834 5831 5829 5826 5823 5820 5818 5815 5812 5809 5806 5803 5800 5797
5869 5869 5869 5869 5869 5868 5868 5867 5867 5866 5865 5863 5862 5860 5859 5857 5855 5853 5851 5849 5847 5845 5844 5842 5840 5838 5835 5833 5830 5828 5825 5822 5820 5817 5814 5812 5809 5806 5803 5800 5797 5794 5791
5861 5861 5861 5861 5860 5859 5859 5859 5858 5857 5856 5855 5853 5852 5851 5849 5847 5845 5844 5842 5840 5838 5837 5835 5833 5831 5829 5826 5824 5821 5819 5816 5813 5811 5808 5805 5802 5799 5797 5794 5790 5787 5784
5852 5852 5852 5852 5851 5851 5850 5850 5849 5848 5848 5846 5845 5844 5842 5841 5839 5837 5835 5834 5833 5831 5829 5827 5826 5824 5821 5819 5817 5815 5812 5809 5807 5804 5802 5799 5796 5793 5790 5787 5784 5781 5778